Zurück zum Katalog

STARLINK-32837

AktivKommunikationVLEO
NORAD 62812·PAYLOAD·🇺🇸 United States

Gestartet Jan 24, 2025 von Vandenberg Space Force Base

Loading…

Nächste Überflüge (nächste 24 Stunden)

TLE

AktuellSource: CelesTrak SupGP

Epoche: Sep 14, 2026, 20:48 UTC

1 62812C 25018G   26257.86715278 -.00052475  00000+0 -15499-2 0  2572
2 62812  53.1571 148.3457 0001307  92.3566  76.8654 15.34425703    18

Verfolge STARLINK-32837 in Echtzeit mit AllMySat

Download on the App Store